Tracking 31027 objects as of 19-Jul-2025
HD Live streaming from Space Station
objects crossing your sky now

CZ-3 DEB

Track CZ-3 DEB now!


NORAD ID: 29445
Int'l Code: 1984-035D
Perigee: 470.5 km
Apogee: 30,776.4 km
Inclination: 30.4 °
Period: 541.0 minutes
Semi major axis: 21994 km
RCS: 0.1344 m2 (medium)
Launch date: April 8, 1984
Source: People's Republic of China (PRC)
Launch site: Xichang Space Center, China (XSC)

Note: This is SATELLITE DEBRIS
Your satellite tracking list
IRIDIUM 106
Track 1 satellite(s)




NASA's NSSDC Master Catalog

Two Line Element Set (TLE):
1 29445U 84035D   25197.43240092  .00000305  00000-0  12585-2 0  9993
2 29445  30.4014 327.5440 6889443  21.9796 356.8938  2.66154196 30363
Source of the keplerian elements: AFSPC